Flag for U.S.A. Weather past 2 weeks in Corpus Christi, Texas, U.S.A.

Now
82 °F

Broken clouds.


Feels Like: 89 °F
Forecast: 76 / 86 °F
Wind: 8 mph from Northeast

Location: Corpus Christi International Airport

Current Time: Sep 30, 2014 at 1:16:17 PM

Latest Report: Sep 30, 2014 at 11:51 AM


Visibility: 10 mi

Pressure: 29.85 "Hg

Humidity: 79%

Dew point: 75 °F

Location of Corpus ChristiLocation

Historic Weather in Corpus Christi — Graph

°F

Corpus Christi temperature yesterday

Maximum temperature yesterday: 86 °F (at 12:51 PM)
Minimum temperature yesterday: 73 °F (at 2:51 AM)
Average temperature yesterday: 79 °F

Past Weeks' High & Low Weather Summary

 TemperatureHumidityPressure
High91 °F (Sep 17, 3:51 PM)97% (Sep 21, 8:51 AM)30.09 "Hg (Sep 21, 8:51 AM)
Low67 °F (Sep 27, 7:51 PM)45% (Sep 23, 5:51 PM)29.76 "Hg (Sep 18, 4:51 PM)
Average80 °F80%29.94 "Hg
* Reported Sep 15 11:51 AM — Sep 30 11:51 AM, Corpus Christi, Weather by CustomWeather, © 2014

Note: Actual official high and low records may vary slightly from our data, if they occured in-between our weather recording intervals... More about our weather records

Advertising

Corpus Christi weather history for previous 24 hours

 ConditionsComfort  
Time TempWeatherWind HumidityBarometerVisibility
11:51 AM
Sep 30
82 °FBroken clouds.8 mph79%29.85 "Hg10 mi
10:51 AM81 °FBroken clouds.8 mph85%29.85 "Hg10 mi
9:51 AM77 °FLight rain. Fog.8 mph94%29.85 "Hg6 mi
8:51 AM76 °FLight rain. Fog.5 mph94%29.85 "Hg5 mi
7:57 AM76 °FFog.No wind94%29.85 "Hg6 mi
6:51 AM74 °FFog.No wind97%29.84 "Hg6 mi
5:51 AM75 °FPassing clouds.3 mph94%29.83 "Hg9 mi
4:51 AM75 °FPassing clouds.6 mph94%29.83 "Hg10 mi
3:51 AM74 °FPartly cloudy.8 mph97%29.84 "Hg10 mi
2:51 AM74 °FPassing clouds.No wind97%29.84 "Hg10 mi
1:51 AM75 °FPassing clouds.No wind94%29.84 "Hg10 mi
12:51 AM75 °FPassing clouds.No wind94%29.85 "Hg10 mi
11:51 PM
Sep 29
77 °FPassing clouds.3 mph90%29.86 "Hg10 mi
10:51 PM78 °FPassing clouds.7 mph87%29.87 "Hg10 mi
9:51 PM79 °FPassing clouds.8 mph84%29.86 "Hg10 mi
8:51 PM79 °FPassing clouds.7 mph84%29.86 "Hg10 mi
7:51 PM80 °FPartly sunny.7 mph79%29.85 "Hg10 mi
6:51 PM82 °FPartly sunny.9 mph77%29.85 "Hg10 mi
5:51 PM83 °FPartly sunny.10 mph72%29.84 "Hg10 mi
4:51 PM83 °FPartly sunny.8 mph72%29.85 "Hg10 mi
3:51 PM86 °FBroken clouds.12 mph63%29.85 "Hg10 mi
2:51 PM85 °FPartly sunny.13 mph65%29.86 "Hg10 mi
1:51 PM84 °FBroken clouds.13 mph67%29.88 "Hg10 mi
Weather by CustomWeather, © 2014

See weather overviewHow to use our weather pages